Location: Gisborne
(38.6530°S, 178.0040°E)
Time: 23:43:15
(UTC+13:00)

NOAA 11 - Pass Details

Date: 24 January 2019
Orbit: 832 x 850 km, 98.4° (Epoch: 15 October)

Event Time Altitude Azimuth Distance (km) Brightness Sun altitude
Rises 21:29:30 0° 165° (SSE) 3,449 7.7 -10.9°
Reaches altitude 10° 21:31:54 10° 163° (SSE) 2,507 6.9 -11.3°
Maximum altitude 21:37:29 74° 78° (ENE) 897 4.2 -12.1°
Drops below altitude 10° 21:42:59 10° 353° (N) 2,478 6.3 -13.0°
Sets 21:45:21 0° 350° (N) 3,405 7.1 -13.4°
